Starlink 35496

operational
NORAD ID: 66114 Int'l Des: 2025-237 Owner: SPXS Country: US Constellation: starlink
LEOCIRCULAR

Über Starlink 35496

Beschreibung wird geladen...

Live-Position

3D-Globus wird geladen...

Nächste Überflüge

Höhenverlauf

Altitude vs Time

uPlot chart will show altitude changes over time

Zweizeiliger Elementsatz

1 66114C 25237A 25298.72965278 -.01126800 00000+0 -20157-2 0 2987
2 66114 53.1554 319.2319 0000741 65.0969 162.2424 16.02140946 13
Epoch: 25. Okt. 2025 • Age: 156 hours

Aktueller Status

Höhe 295.3 km
Geschwindigkeit 7.74 km/s
Subsatellitenpunkt 30.65°N, 89.24°E
Startdatum 22. Okt. 2025
Alter 8 days
Typ internet

Technische Details

Klassifizierung Payload
Masse 575.00 kg
Trockenmasse 530.00 kg
Gesamtmasse 575.00 kg
Länge 0.30 m
Durchmesser 4.10 m
Spannweite 29.00 m
Form Box + pan
Hersteller SPXS
Bus-Typ Starlink V2MO
Phasenstatus In Orbit
Besitzer/Staat SPXS/US

Große Konstellationen

Loading constellations...